Weather in Nagornoye

Russia / Novosibirsk Oblast     55°25′41″N   78°16′27″E
temp.,
°C
wind,
m/s
gust,
m/s
humid.,
%
clouds,
%
prec.,
mm/h
press.,
hPa
HPBL,
m
2 march, tue
tue201:00−16ne349696 0.2 1013107
04:00−17n229780 0.1 101328
07:00−20n1210076 0.1 101520
10:00−20nnw119879 0.0 101620
13:00−16w119081 0.0 1016215
16:00−14sw238993 0.0 1016328
19:00−18sw119791 0.0 101620
22:00−19s239988 0.0 101620
3 march, wed
wed301:00−20ssw2210087 0.0 101620
04:00−20s239988 0.0 101620
07:00−20s2310090 0.1 101720
10:00−16ssw349697 0.1 1017190
13:00−14s479494 0.1 1017323
16:00−12s5993100 0.0 1017417
19:00−13s61293100 0.1 1017420
22:00−15s71393100 0.0 1016419
4 march, thu
thu401:00−13ssw71393100 0.2 1016517
04:00−10ssw71494100 0.7 1014537
07:00−9ssw71494100 1.2 1014464
10:00−9ssw81393100 0.4 1012502
13:00−6ssw81492100 0.8 1012642
16:00−4ssw91492100 0.2 1010773
19:00−3ssw91594100 0.8 1010863
22:00−3ssw91692100 0.6 1008840
5 march, fri
fri501:00−3ssw91695100 1.1 1007779
04:00−4ssw91693100 0.8 1005667
07:00−3ssw81594100 1.2 1005694
10:00−3sw71295100 0.8 1006769
13:00−5wsw81286100 1.1 1009865
16:00−6wsw7128581 0.0 1012709
19:00−7ssw8168586 0.0 1013659
22:00−6ssw101793100 0.6 1012966
6 march, sat
sat601:00−4sw101793100 1.5 10111012
04:00−4sw101793100 0.8 1009945
07:00−4sw101694100 2.1 1009882
10:00−5sw91694100 0.8 1009815
13:00−4sw91494100 1.8 1009863
16:00−2wsw81293100 0.7 1009924
19:00−3wsw81390100 0.9 1012868
22:00−5sw61092100 0.1 1015643